Flag for U.S.A. Weather past 2 weeks in Pittsburgh, Pennsylvania, U.S.A.

Now
68 °F

Clear.


Feels Like: 68 °F
Forecast: 69 / 86 °F
Wind: 6 mph from Southwest

Location: Allegheny County Airport

Current Time: Sep 3, 2015 at 7:21:56 AM

Latest Report: Sep 3, 2015 at 6:53 AM


Visibility: 4 mi

Pressure: 29.98 "Hg

Humidity: 84%

Dew point: 63 °F

Location of PittsburghLocation

Historic Weather in Pittsburgh — Graph

°F

Pittsburgh temperature yesterday

Maximum temperature yesterday: 87 °F (at 5:53 PM)
Minimum temperature yesterday: 69 °F (at 6:53 AM)
Average temperature yesterday: 77 °F

Past Weeks' High & Low Weather Summary

 TemperatureHumidityPressure
High87 °F (Aug 31, 3:53 PM)90% (Aug 19, 6:00 AM)30.23 "Hg (Aug 19, 6:00 AM)
Low55 °F (Aug 29, 5:53 AM)26% (Aug 22, 2:53 PM)29.83 "Hg (Aug 20, 3:53 AM)
Average71 °F59%30.05 "Hg
* Reported Aug 19 6:00 AM — Sep 3 5:53 AM, Pittsburgh, Weather by CustomWeather, © 2015

Note: Actual official high and low records may vary slightly from our data, if they occured in-between our weather recording intervals... More about our weather records

Advertising

Pittsburgh weather history for previous 24 hours

 ConditionsComfort  
Time TempWeatherWind HumidityBarometerVisibility
5:53 AM
Thu, Sep 3
67 °FFog.No wind87%29.96 "Hg5 mi
4:53 AM68 °FClear.5 mph84%29.96 "Hg6 mi
3:53 AM69 °FPassing clouds.7 mph81%29.97 "Hg8 mi
2:53 AM70 °FPassing clouds.8 mph79%29.97 "Hg9 mi
1:53 AM70 °FPassing clouds.6 mph79%29.98 "Hg9 mi
12:53 AM72 °FClear.6 mph71%29.99 "Hg10 mi
11:53 PM
Wed, Sep 2
73 °FPassing clouds.6 mph71%29.99 "Hg10 mi
10:53 PM75 °FClear.5 mph62%29.99 "Hg10 mi
9:53 PM77 °FPassing clouds.5 mph58%29.99 "Hg10 mi
8:53 PM78 °FPassing clouds.9 mph60%29.98 "Hg10 mi
7:53 PM79 °FSunny.8 mph56%29.97 "Hg10 mi
6:53 PM85 °FScattered clouds.9 mph37%29.97 "Hg10 mi
5:53 PM87 °FSunny.5 mph36%29.97 "Hg10 mi
4:53 PM86 °FPassing clouds.3 mph39%29.98 "Hg10 mi
3:53 PM86 °FScattered clouds.3 mph39%30.00 "Hg10 mi
2:53 PM86 °FPassing clouds.9 mph42%30.02 "Hg10 mi
1:53 PM83 °FScattered clouds.7 mph57%30.04 "Hg10 mi
1:02 PM76 °FSunny.7 mph67%30.08 "Hg10 mi
11:53 AM80 °FThunderstorms. Partly sunny.8 mph54%30.09 "Hg10 mi
10:53 AM79 °FPartly sunny.3 mph62%30.10 "Hg9 mi
9:53 AM75 °FScattered clouds.No wind71%30.10 "Hg7 mi
8:53 AM74 °FPartly sunny.No wind71%30.10 "Hg6 mi
7:53 AM72 °FSunny.No wind76%30.10 "Hg6 mi
Weather by CustomWeather, © 2015

See weather overviewHow to use our weather pages